"Pseudo-MPEC" for C1CMXM5

Created 2026 Mar 22 8:35:07 UT using Find_Orb

Click here for an explanation of pseudo-MPECs

 
 Astrometry: 
     C1CMXM5*1C2026 02 26.38340511 33 45.184+34 14 02.90   ~2QA5 22.58GVNEOCPV00
     C1CMXM5 1C2026 02 26.38902011 33 45.108+34 13 52.72   ~2QA5 22.14GVNEOCPV00
     C1CMXM5 1C2026 02 26.39462911 33 45.007+34 13 42.78   ~2QA5 21.80GVNEOCPV00
     C1CMXM5 1C2026 02 26.40024611 33 44.924+34 13 32.52   ~2QA5 22.09GVNEOCPV00
     C1CMXM5 0C2026 02 26.49881011 33 43.720+34 10 29.60   ~2QDZ       VNEOCP291
     C1CMXM5 0C2026 02 26.52133011 33 43.590+34 09 48.10   ~2QDZ 22.1 RVNEOCP291
     C1CMXM5 1C2026 02 27.37281011 33 51.815+33 45 47.12   ~2RAZ 21.87GVNEOCPV06
     C1CMXM5 1C2026 02 27.37982611 33 51.667+33 45 35.03   ~2RAZ 22.03GVNEOCPV06
     C1CMXM5 1C2026 02 27.39888511 33 51.361+33 45 02.81   ~2RAZ 22.35GVNEOCPV06
     C1CMXM5 1C2026 02 27.40524011 33 51.232+33 44 51.94   ~2RAZ 21.67GVNEOCPV06

Station data:
(291) LPL/Spacewatch II  (N31.961669 W111.599905)  US/Arizona.  Observers J.
   V. Scotti, R. S. McMillan. 1.8-m f/2.7 reflector + CCD.
(V00) Kitt Peak-Bok  (N31.963125 W111.600190)  US/Arizona. Measurers T.
   Beuden, V. F. Carvajal, D. Fay, J. B. Fazekas, D. C. Fuls, A. R. Gibbs, A.
   D. Grauer, H. Gröller, J. K. Hogan, R. A. Kowalski, S. M. Larson, G. J.
   Leonard, D. Rankin, R. L. Seaman, F. C. Shelly, K. W. Wierzchoś. 2.25-m
   reflector + 4x4K mosaic CCD.
(V06) Catalina Sky Survey-Kuiper  (N32.416871 W110.732550)  US/Arizona.
   Measurers T. Beuden, V. F. Carvajal, D. Fay, J. B. Fazekas, D. C. Fuls, A.
   R. Gibbs, A. D. Grauer, H. Gröller, J. K. Hogan, R. A. Kowalski, S. M.
   Larson, G. J. Leonard, D. Rankin, R. L. Seaman, F. C. Shelly, K. W.
   Wierzchoś. 1.55-m reflector + CCD.

Orbital elements:  C1CMXM5
   Perihelion 2026 Jan 7.599293 +/- 0.2 TT = 14:22:58.8 (JD 2461048.099293)
Epoch 2026 Feb 27.0 TT = JDT 2461098.5   Earth MOID: 0.0134      AutoNEOCP
M  14.569032435 +/- 1.2             (J2000 ecliptic)
n   0.289064047 +/- 0.0227          Peri.  329.030447 +/- 2.4
a   2.265374441 +/- 0.119           Node   127.311768 +/- 1.6
e   0.59921460 +/- 0.0252           Incl.    7.460144 +/- 0.39
P   3.40965                H 24.94  G  0.15   U 10.2
q 0.907928998 +/- 0.00992    Q 3.622819884 +/- 0.247
From 10 observations 2026 Feb. 26-27 (24.5 hr); mean residual 0".19
Residuals in arcseconds: 
260226 V00  .06-  .05+    260226 291  .07-  .58-    260227 V06  .15+  .01-    
260226 V00  .11+  .05-    260226 291  .05+  .48+    260227 V06  .12-  .03-    
260226 V00  .05-  .12+    260227 V06  .14+  .16+    
260226 V00  .01+  .01+    260227 V06  .16-  .11-    

Ephemerides (geocentric):
Date (UTC) HH   RA             Dec           delta  r     elong  mag " sig PA
---- --------  ------------   ------------  ------ ------ -----  --- --------
2026 03 22 09  11 32 19.326   +26 26 36.03  .35813 1.3231 151.9 24.3  173   4
2026 03 22 10  11 32 19.338   +26 25 56.93  .35853 1.3234 151.9 24.3  173   4
2026 03 22 11  11 32 19.351   +26 25 17.84  .35893 1.3238 151.8 24.4  173   4
2026 03 22 12  11 32 19.367   +26 24 38.75  .35933 1.3241 151.8 24.4  174   4
2026 03 22 13  11 32 19.384   +26 23 59.68  .35973 1.3245 151.8 24.4  174   4
2026 03 22 14  11 32 19.403   +26 23 20.62  .36014 1.3248 151.8 24.4  175   4
2026 03 22 15  11 32 19.424   +26 22 41.57  .36054 1.3252 151.8 24.4  175   4
2026 03 22 16  11 32 19.447   +26 22 02.52  .36094 1.3255 151.8 24.4  175   4
2026 03 22 17  11 32 19.472   +26 21 23.49  .36134 1.3259 151.7 24.4  176   4
2026 03 22 18  11 32 19.498   +26 20 44.46  .36175 1.3262 151.7 24.4  176   4
2026 03 22 19  11 32 19.527   +26 20 05.45  .36215 1.3266 151.7 24.4  176   4
2026 03 22 20  11 32 19.557   +26 19 26.44  .36255 1.3269 151.7 24.4  177   4
2026 03 22 21  11 32 19.590   +26 18 47.45  .36296 1.3273 151.7 24.4  177   4
2026 03 22 22  11 32 19.624   +26 18 08.46  .36336 1.3276 151.7 24.4  177   4
2026 03 22 23  11 32 19.660   +26 17 29.48  .36377 1.3280 151.7 24.4  178   4
2026 03 23 00  11 32 19.699   +26 16 50.52  .36417 1.3283 151.6 24.4  178   4
2026 03 23 01  11 32 19.739   +26 16 11.56  .36457 1.3287 151.6 24.4  179   4
2026 03 23 02  11 32 19.781   +26 15 32.61  .36498 1.3290 151.6 24.4  179   4
2026 03 23 03  11 32 19.825   +26 14 53.67  .36538 1.3294 151.6 24.4  179   4
2026 03 23 04  11 32 19.871   +26 14 14.74  .36579 1.3297 151.6 24.4  180   4
2026 03 23 05  11 32 19.918   +26 13 35.82  .36619 1.3301 151.6 24.4  180   4
2026 03 23 06  11 32 19.968   +26 12 56.90  .36660 1.3304 151.5 24.4  180   4
2026 03 23 07  11 32 20.020   +26 12 18.00  .36700 1.3308 151.5 24.4  181   4
2026 03 23 08  11 32 20.073   +26 11 39.10  .36741 1.3312 151.5 24.4  181   4
2026 03 23 09  11 32 20.129   +26 11 00.22  .36782 1.3315 151.5 24.4  182   4
2026 03 23 10  11 32 20.187   +26 10 21.34  .36822 1.3319 151.5 24.4  182   4
2026 03 23 11  11 32 20.246   +26 09 42.48  .36863 1.3322 151.5 24.4  182   4
2026 03 23 12  11 32 20.308   +26 09 03.62  .36904 1.3326 151.4 24.4  183   4
2026 03 23 13  11 32 20.371   +26 08 24.77  .36944 1.3329 151.4 24.4  183   4
2026 03 23 14  11 32 20.436   +26 07 45.93  .36985 1.3333 151.4 24.4  183   4
2026 03 23 15  11 32 20.504   +26 07 07.09  .37026 1.3336 151.4 24.4  184   4
2026 03 23 16  11 32 20.573   +26 06 28.27  .37066 1.3340 151.4 24.4  184   4
2026 03 23 17  11 32 20.644   +26 05 49.46  .37107 1.3343 151.4 24.4  185   4
2026 03 23 18  11 32 20.717   +26 05 10.65  .37148 1.3347 151.3 24.4  185   4
2026 03 23 19  11 32 20.793   +26 04 31.86  .37189 1.3350 151.3 24.5  185   4
2026 03 23 20  11 32 20.870   +26 03 53.07  .37229 1.3354 151.3 24.5  186   4
2026 03 23 21  11 32 20.949   +26 03 14.29  .37270 1.3357 151.3 24.5  186   4
2026 03 23 22  11 32 21.030   +26 02 35.52  .37311 1.3361 151.3 24.5  186   4
2026 03 23 23  11 32 21.113   +26 01 56.76  .37352 1.3364 151.2 24.5  187   4
2026 03 24 00  11 32 21.198   +26 01 18.00  .37393 1.3368 151.2 24.5  187   4
2026 03 24 01  11 32 21.285   +26 00 39.26  .37434 1.3371 151.2 24.5  187   4
2026 03 24 02  11 32 21.374   +26 00 00.52  .37475 1.3375 151.2 24.5  188   4
2026 03 24 03  11 32 21.465   +25 59 21.79  .37516 1.3379 151.2 24.5  188   4
2026 03 24 04  11 32 21.558   +25 58 43.07  .37557 1.3382 151.2 24.5  189   4
2026 03 24 05  11 32 21.653   +25 58 04.36  .37598 1.3386 151.1 24.5  189   4
2026 03 24 06  11 32 21.750   +25 57 25.66  .37639 1.3389 151.1 24.5  189   4
2026 03 24 07  11 32 21.849   +25 56 46.97  .37680 1.3393 151.1 24.5  190   4
2026 03 24 08  11 32 21.950   +25 56 08.28  .37721 1.3396 151.1 24.5  190   4